Regional Weather Roundup
Issued by NWS Grand Forks, ND

Home | Current Version | Previous Version | Graphics & Text | Print | Product List | Glossary On
Versions: 1 2 3 4 5 6 7 8 9 10 11 12 13 14 15 16 17 18 19 20 21 22 23 24 25 26 27 28 29 30 31 32 33 34 35 36 37 38 39 40 41 42 43 44 45 46 47 48 49 50
000
ASUS43 KFGF 262031
RWRFGF
PRAIRIE TO PINES  WEATHER ROUNDUP
NATIONAL WEATHER SERVICE EASTERN NORTH DAKOTA/GRAND FORKS ND
300 PM CDT THU MAY 26 2016

 **SATELLITE DATA USED TO AUGMENT SKY COVER AT AUTOMATED STATIONS**
 *****  WEATHER ACROSS EASTERN NORTH DAKOTA  *****

CITY           SKY/WX    TMP DP  RH WIND       PRES   REMARKS
GRAND FORKS    CLOUDY    69  57  65 W13       29.74F
GRAND FRKS AFB PTSUNNY   68  56  65 W10G22    29.75S
GRAND FRKS NWS   N/A     72 N/A N/A SW18        N/A
DEVILS LAKE    PTSUNNY   65  55  70 W13       29.78S
FARGO          FAIR      73  55  53 W17G24    29.79S
WAHPETON ARPT  FAIR      77  45  31 NW15G21   29.80F
$$

 ***** WEATHER ACROSS CENTRAL AND WESTERN NORTH DAKOTA  *****

CITY           SKY/WX    TMP DP  RH WIND       PRES   REMARKS
BISMARCK       PTSUNNY   71  47  42 SW9       29.79F
MINOT          PTSUNNY   69  55  60 VRB7      29.79S
JAMESTOWN      FAIR      72  53  51 W14G24    29.79S
MINOT AFB      PTSUNNY   63  54  72 NE5       29.79S
GARRISON         N/A     69  47  45 CALM      29.78F
WILLISTON      PTSUNNY   66  48  52 VRB6      29.79F
DICKINSON      FAIR      63  40  42 NW8G18    29.81F
HETTINGER      CLOUDY    65  41  41 W14G22    29.85F
$$

 *****  OTHER AIRPORT OBSERVATIONS IN OUR AREA  *****

CITY           SKY/WX    TMP DP  RH WIND       PRES   REMARKS
WALHALLA       FAIR      63  63 100 W7        29.73R
GRAFTON AIRPOR CLOUDY    68  57  68 W17       29.75S
VALLEY CITY AR FAIR      72  54  53 W14G24    29.81F
CANDO          CLOUDY    63  52  67 N9        29.80R
CAVALIER APRT  MOCLDY    64  57  77 W13       29.72R
GWINNER        FAIR      75  54  46 W9        29.80F
SHEYENNE NWR     N/A     75  51  43 W14       29.95S
ROLLA          CLOUDY    59  52  77 NW17      29.79S
 ***** THE ABOVE OBSERVATIONS ARE NON NWS ARE NOT QUALITY
       CONTROLLED AND MAY MIS-REPORT RAIN FOR SNOW...
$$

  *****  WEATHER ACROSS NORTHERN MINNESOTA  *****

CITY           SKY/WX    TMP DP  RH WIND       PRES   REMARKS
FLAG ISLAND    PTSUNNY   64  55  72 SW10      29.70F
WARROAD        FAIR      70  59  68 SW14G20   29.72S
ROSEAU         FAIR      70  59  68 SW18      29.71F
HALLOCK        PTSUNNY   68  55  64 W17       29.71R
THF RVR FALLS  PTSUNNY   66  55  68 SW16      29.77R
BAUDETTE       FAIR      72  53  51 W14G22    29.72S
WASKISH        FAIR      72  59  64 W10       29.75F
CROOKSTON      PTSUNNY   70  57  64 SW13      29.77S
STEPHEN NDAWN    N/A     68  57  68 SW12        N/A
GREENBUSH NDAW   N/A     66  57  72 W13         N/A
$$
  *****  WEATHER ACROSS CENTRAL AND WEST MINNESOTA  *****

CITY           SKY/WX    TMP DP  RH WIND       PRES   REMARKS
FOSSTON        PTSUNNY   66  59  77 SW16      29.78R
BEMIDJI        FAIR      73  54  51 W13G18    29.77S
PARK RAPIDS    FAIR      72  52  49 SW15G21   29.79S
ELBOW LAKE     FAIR      76  46  33 NW16      29.82S
WADENA         FAIR      72  52  49 W12G21    29.81S
DETROIT LAKES  FAIR      68  54  60 W12       29.82F
MOORHEAD       FAIR      72  57  60 W15G26    29.79F
FERGUS FALLS   FAIR      75  50  41 W15G24    29.77F
MORRIS MN      FAIR      79  46  31 W13G22    29.81F
STAPLES        FAIR      73  52  46 W12G21    29.81S
$$
  *****  WEATHER ELSEWHERE ACROSS MINNESOTA  *****

CITY           SKY/WX    TMP DP  RH WIND       PRES   REMARKS
DULUTH         FAIR      65  56  72 CALM      29.81S
INTRNTL FALLS  FAIR      74  54  49 W8        29.73F
ELY            PTSUNNY   72  54  53 SW5       29.77S
CLOQUET        FAIR      68  57  68 CALM      29.79F
WHEATON        FAIR      81  50  34 W12       29.82F
BRAINERD       FAIR      75  50  41 W16       29.80R
HIBBING        FAIR      67  57  70 CALM      29.78F
ALEXANDRIA     FAIR      76  46  34 W14G22    29.83F
SAINT CLOUD    FAIR      79  47  32 W18G24    29.81S
MINNEAPOLIS    FAIR      80  50  34 W10G20    29.81F
$$

  *****  WEATHER ACROSS SOUTH DAKOTA  *****

CITY           SKY/WX    TMP DP  RH WIND       PRES   REMARKS
SIOUX FALLS    PTSUNNY   75  54  47 CALM      29.85F
BROOKINGS      FAIR      73  49  42 NW7       29.86F
WATERTOWN      FAIR      73  50  44 SW12      29.85F
HURON          FAIR      74  52  46 W5        29.84F
SISSETON         N/A     77  48  35 W20G28    29.80F
ABERDEEN       FAIR      76  51  41 SW13G21   29.83F
MITCHELL       FAIR      73  53  49 S5        29.85F
PIERRE         FAIR      74  54  49 S7        29.80F
MOBRIDGE       FAIR      75  52  44 S14G22    29.78F
RAPID CITY     PTSUNNY   69  45  41 VRB7      29.87F
$$

  *****  SOME WEATHER IN NEARBY STATES *****

CITY           SKY/WX    TMP DP  RH WIND       PRES   REMARKS
GLASGOW MT     RAIN      56  53  90 W14       29.83S FOG
GREAT FALLS MT FAIR      62  48  60 CALM      29.94F
CHEYENNE WY    LGT RAIN  56  36  47 E20       29.95S
SCOTTSBLUFF NE FAIR      68  41  37 S6        29.89F
OMAHA NE       PTSUNNY   81  60  48 NE9       29.74F
DES MOINES IA  PTSUNNY   81  62  52 SE9       29.82F
DAVENPORT IA   FAIR      82  64  54 SW10      29.86F
CHICAGO IL     PTSUNNY   80  63  55 SW13G22   29.87F
EAU CLAIRE WI  FAIR      79  58  48 SW14G21   29.81S
LA CROSSE WI   FAIR      83  59  44 SW16      29.83S
$$

  *****  SOME NATIONAL WEATHER *****

CITY           SKY/WX    TMP DP  RH WIND       PRES   REMARKS
LA GUARDIA NY  PTSUNNY   89  58  34 S15G23    30.03F
RALEIGH NC     PTSUNNY   88  63  43 SW10      30.11F
ATLANTA GA     PTSUNNY   87  60  40 S9        30.11F
NEW ORLEANS LA PTSUNNY   87  69  54 SE10      30.06R HX  91
OKLAHOMA CITY  PTSUNNY   83  72  69 S21G28    29.77F
ALBUQUERQUE NM PTSUNNY   71   7   8 S16G26    29.88F
SALT LAKE CITY FAIR      68  40  35 W12G23    29.96F
LOS ANGELES CA FAIR      68  52  56 W15       30.05F
BOISE ID       FAIR      73  39  29 NW17      29.99F
SEATTLE WA     CLOUDY    57  46  66 VRB6      30.20F
$$

*** WEATHER ACROSS MANITOBA...SASKATCHEWAN AND ONTARIO ***
                ***ONTARIO***

CITY           SKY/WX    TMP DP  RH WIND       PRES   REMARKS
GERALDTON      CLOUDY    63  48  59 E12       29.82S
THUNDER BAY    CLOUDY    55  54  94 E9        29.82F
SIOUX LOOKOUT  CLOUDY    63  57  82 S8        29.76S
TORONTO        LGT RAIN  73  66  78 S8        29.96F
BIG TROUT LK   SUNNY     70  46  43 S7        29.80F
PICKLE LAKE    CLOUDY    70  48  46 SE15G21   29.76F
DRYDEN         CLOUDY    63  55  77 S9        29.76S
KENORA         CLOUDY    64  55  72 SW10      29.72S
$$
                *** MANITOBA***

CITY           SKY/WX    TMP DP  RH WIND       PRES   REMARKS
BRANDON        LGT RAIN  59  55  88 NW13      29.78R
DAUPHIN        MOSUNNY   68  54  60 N9        29.75F
ISLAND LAKE    PTSUNNY   68  50  52 N10G17    29.76R
PILOT MOUND      N/A     57  55  94 NW15        N/A
THE PAS        MOSUNNY   73  43  33 N7        29.80F
THOMPSON       PTSUNNY   59  45  58 N21G26    29.88S
WINNIPEG       CLOUDY    64  57  77 VRB2      29.65S
LYNN LAKE      MOSUNNY   54  37  54 N14G20    29.99R
CHURCHILL      LGT SNOW  32  32 100 NE21      30.07R FOG     WCI  20
GILLAM         PTSUNNY   55  45  67 N16       29.88R
$$
                ***SASKATCHEWAN***

CITY           SKY/WX    TMP DP  RH WIND       PRES   REMARKS
ESTEVAN        LGT RAIN  57  55  94 NE14      29.83S FOG
KINDERSLEY     PTSUNNY   68  43  40 N5        29.89S
LLOYDMINSTER   PTSUNNY   72  39  30 E8        29.85F
PRINCE ALBERT  PTSUNNY   72  45  37 NE5       29.83F
REGINA         LGT RAIN  59  54  82 NE7       29.88F
YORKTON        MOSUNNY   70  48  46 NW3       29.80F
N. BATTLEFORD  MOSUNNY   70  45  40 S3        29.89S
LA RONGE       MOSUNNY   64  50  59 NE13      29.88F
SASKATOON      PTSUNNY   72  48  43 S8G18     29.88F
SWIFT CURRENT  PTSUNNY   61  52  72 NE9       29.90S
$$
NOTE: THESE ARE AUTOMATED STATIONS WITH LIMITED QUALITY CONTROL
      "FAIR" INDICATES FEW OR NO CLOUDS BELOW 12,000 FEET WITH NO
      SIGNIFICANT WEATHER AND/OR OBSTRUCTIONS TO VISIBILITY.
      SKY/WX - SKY CONDITION AND SIGNIFICANT WEATHER.
      TMP - AIR TEMPERATURE.    DP   - DEWPOINT TEMPERATURE.
      RH  - RELATIVE HUMIDITY.  PRES - PRESSURE.
      HX  - HEAT INDEX.         WCI  - WIND CHILL INDEX.
$




USA.gov is the U.S. government's official web portal to all federal, state and local government web resources and services.